World > North America > United States > New York > Monsey   Town of Ramapo, New York

Monsey, NY Hourly Weather Updates

Feedback E-mail the Weather

Quick WX

Monsey, NY Weather Maps

°F °C°F °C
Monsey Weather Map
UTC Time: 3/2/2024, 00:33
Your Time:

Monsey, NY Regional Weather

Expires:202403020100;;233956
ASUS41 KALY 020010
RWRALY

NEW YORK STATE HOURLY WEATHER ROUNDUP
NATIONAL WEATHER SERVICE ALBANY NY
700 PM EST FRI MAR 01 2024

NOTE: "FAIR" INDICATES FEW OR NO CLOUDS BELOW 12,000 FEET WITH NO
SIGNIFICANT WEATHER AND/OR NO OBSTRUCTIONS TO VISIBILITY.


NYZ032-033-038>043-046>054-057>066-NYZ062>081-082-084-020100-
EAST

  
CITY           SKY/WX    TMP DP  RH WIND       PRES   REMARKS
ALBANY         MOCLDY    43  19  38 SE8       30.48S                  
GLENS FALLS    CLEAR     36  20  52 S3        30.46S                  
POUGHKEEPSIE   MOCLDY    41  21  44 VRB7      30.52S                  
MONTGOMERY     MOCLDY    38  20  48 S6        30.50S WCI  33          
WHITE PLAINS   MOCLDY    36  24  62 S7        30.55S WCI  30          
ISLIP          MOCLDY    38  24  57 S9        30.58F WCI  31          
NEW YORK CITY  CLOUDY    41  26  55 S12       30.57S                  
CENTRAL PARK   CLOUDY    41  28  60 S9        30.59S                  
$$


SKY/WX - Weather  TMP - Temperature  DP - Dew Point  RH - Humidity
WIND - Wind Direction/Speed PRES - Barometric Pressure VSB - Visibility
WCI - Wind Chill Index E13G22 Wind - East Wind 13 mph/Gusts of 22 mph

Trending Headlines

Trending Entertainment Headlines

Monsey Radar Loop

Use the map search tool if you want to place a location marker on the radar map...

Monsey Quick Facts

National Two Day Weather Forecast


E-mail the Monsey Weather Forecast

Voice your opinion or tell us about page issues...